[[{"header":{"parameterUnit":"m.s-1","parameterCategory":1,"la1":30.2991,"la2":30.254,"lo1":-89.0895,"lo2":-89.0444,"dy":0.0017,"dx":0.0017,"nx":28,"ny":28,"refTime":"2025-04-02T09:00:00:Z","depth":0,"parameterNumber":2,"parameterNumberName":"U-component_of_WINDS"},"data":[0,0,0,0,0,0,0,0,0,0,0,0,0,0,0,0,0,0,0,0,0,0,0,0,0,0,0,0,0,0,0,0,0,0,0,0,0,0,0,0,0,0,0,0,0,0,0,0,0,0,0,0,0,0,0,0,0,0,-5.5471,-5.5472,0,-5.555,-5.5551,-5.5552,-5.552,-5.5518,-5.5517,-5.5515,-5.5592,-5.5596,-5.56,0,0,0,0,0,0,0,0,0,0,0,0,0,-5.5287,-5.5291,-5.5471,-5.5472,-5.5473,-5.555,-5.5551,-5.5553,-5.5521,-5.5518,-5.5516,-5.5514,-5.5591,-5.5595,-5.56,0,0,0,0,0,0,0,0,0,0,0,0,0,-5.5367,-5.5292,-5.547,-5.5466,-5.5467,-5.555,-5.5551,-5.5553,-5.5521,-5.5518,-5.5516,-5.5513,-5.5589,-5.5595,-5.5601,-5.5692,0,0,-5.5618,-5.562,0,0,0,0,0,0,0,0,-5.5362,-5.5374,-5.5466,-5.5467,-5.5467,-5.5523,-5.5515,-5.5599,-5.5522,-5.55,-5.5515,-5.5512,-5.5571,-5.5578,-5.5599,-5.5695,-5.5698,-5.5618,-5.5622,-5.5624,-5.5626,0,0,0,0,0,0,0,-5.5357,-5.537,-5.5502,-5.5467,-5.5468,-5.5459,-5.5467,-5.5531,-5.555,-5.5502,-5.55,-5.551,-5.5571,-5.5594,-5.5601,-5.57,-5.5618,-5.5623,-5.5627,-5.5629,-5.5873,-5.5876,0,0,0,0,0,0,-5.5352,-5.5366,-5.55,-5.5504,-5.5407,-5.5465,-5.5474,-5.5508,-5.5549,-5.5553,-5.5512,-5.5508,-5.5585,-5.5594,-5.5603,-5.5711,-5.5624,-5.563,-5.5633,-5.587,-5.5874,-5.5877,0,0,0,0,0,0,-5.5348,-5.5364,-5.5496,-5.5435,-5.5451,-5.5471,-5.5509,-5.5511,-5.5533,-5.5557,-5.556,-5.5532,-5.5583,-5.5595,-5.567,-5.5713,-5.5632,-5.5637,-5.5867,-5.5872,-5.5876,-5.5928,0,0,0,0,0,0,-5.5343,-5.5363,-5.5398,-5.5436,-5.5454,-5.5563,-5.5512,-5.5514,-5.5544,-5.5539,-5.5577,-5.558,-5.5582,-5.5662,-5.5676,-5.5719,-5.5642,-5.5863,-5.5869,-5.5874,-5.5922,-5.5933,-5.5943,0,0,0,0,0,-5.5336,-5.5409,-5.54,-5.5416,-5.5499,-5.5565,-5.5576,-5.5578,-5.5548,-5.5582,-5.5598,-5.5579,-5.5707,-5.567,-5.5685,-5.5731,-5.586,-5.5867,-5.5874,-5.5917,-5.5931,-5.5943,0,0,0,0,0,0,-5.5374,-5.5414,-5.5404,-5.5491,-5.5526,-5.556,-5.5604,-5.5593,-5.5634,-5.5628,-5.5628,-5.5637,-5.5713,-5.573,-5.5688,-5.5821,-5.5779,-5.5789,-5.5806,-5.582,-5.583,-5.5823,-5.5647,0,0,0,0,0,-5.5393,-5.5445,-5.5476,-5.555,-5.5568,-5.5583,-5.5612,-5.5611,-5.5646,-5.5659,-5.568,-5.5713,-5.5761,-5.5792,-5.5837,-5.5926,-5.5932,-5.5965,-5.5976,-5.5985,-5.5992,-5.6039,-5.6053,-5.59,-5.59,-5.59,0,0,-5.5431,-5.5459,-5.5492,-5.5558,-5.5584,-5.5636,-5.5595,-5.5652,-5.569,-5.5667,-5.5739,-5.5756,-5.5793,-5.5875,-5.5912,-5.5891,-5.6037,-5.5993,-5.6,-5.6003,-5.6047,-5.6062,-5.6075,-5.5905,-5.5904,-5.5903,0,0,-5.5527,-5.5555,-5.5618,-5.5646,-5.5687,-5.5698,-5.5713,-5.575,-5.5761,-5.5833,-5.5817,-5.5862,-5.5945,-5.5971,-5.5996,-5.6105,-5.6088,-5.612,-5.6173,-5.6218,-5.623,-5.6241,-5.6277,-5.629,-5.6128,-5.6128,-5.6128,0,-5.5569,-5.5648,-5.5652,-5.5711,-5.574,-5.5724,-5.5788,-5.5814,-5.5867,-5.5887,-5.5864,-5.5968,-5.5992,-5.6078,-5.6105,-5.6127,-5.6143,-5.6113,-5.6229,-5.6239,-5.6249,-5.6283,-5.6297,-5.6131,-5.6131,-5.6131,-5.613,0,-5.5696,-5.5751,-5.5798,-5.5851,-5.5886,-5.5947,-5.5959,-5.5994,-5.5991,-5.6003,-5.6077,-5.6106,-5.6156,-5.6177,-5.6174,-5.6264,-5.625,-5.6228,-5.6185,-5.6267,-5.6299,-5.6313,-5.6136,-5.6135,-5.6134,-5.6133,0,0,-5.5814,-5.5871,-5.5887,-5.5911,-5.5956,-5.5998,-5.6059,-5.611,-5.6138,-5.6177,-5.6225,-5.6297,-5.6277,-5.6305,-5.6305,-5.6346,-5.6427,-5.6319,-5.632,-5.6335,-5.6525,-5.6538,-5.6554,-5.6418,-5.6421,-5.6423,-5.6521,0,-5.5911,-5.6017,-5.6024,-5.6119,-5.6169,-5.6157,-5.6209,-5.6242,-5.6256,-5.63,-5.6315,-5.6364,-5.6336,-5.6353,-5.6393,-5.6409,-5.6465,-5.6402,-5.6461,-5.6463,-5.6448,-5.6571,-5.6585,-5.6676,-5.6534,-5.6536,-5.6538,0,-5.6037,-5.608,-5.6181,-5.622,-5.6241,-5.6288,-5.6335,-5.6378,-5.6415,-5.6422,-5.6455,-5.645,-5.651,-5.6468,-5.655,-5.6508,-5.6533,-5.6545,-5.6548,-5.6551,-5.6502,-5.6573,-5.6705,-5.6718,-5.6558,-5.6557,-5.6555,0,-5.6109,-5.6193,-5.6264,-5.6285,-5.6332,-5.6365,-5.6386,-5.6421,-5.6451,-5.6493,-5.6512,-5.656,-5.6585,-5.6622,-5.6629,-5.6599,-5.6711,-5.667,-5.6716,-5.6716,-5.6737,-5.6734,-5.6871,-5.6759,-5.6759,-5.6759,-5.6759,0,-5.6214,-5.6276,-5.6297,-5.634,-5.6408,-5.6416,-5.6483,-5.6502,-5.6533,-5.6579,-5.6572,-5.6615,-5.6624,-5.6669,-5.6675,-5.6741,-5.6753,-5.6759,-5.6759,-5.6758,-5.6756,-5.6771,-5.6763,-5.6763,-5.6762,-5.6761,-5.676,0,-5.6305,-5.6322,-5.6398,-5.6437,-5.6449,-5.6497,-5.653,-5.6571,-5.6586,-5.6643,-5.6657,-5.6679,-5.6731,-5.6744,-5.6806,-5.681,-5.6887,-5.6883,-5.6874,-5.6873,-5.6917,-5.6912,-5.7065,-5.7084,-5.6963,-5.6964,-5.6965,0,-5.6369,-5.6416,-5.6461,-5.6492,-5.6515,-5.6565,-5.6596,-5.6606,-5.6639,-5.6685,-5.672,-5.6772,-5.6813,-5.6897,-5.6917,-5.6965,-5.6959,-5.701,-5.6966,-5.6963,-5.6956,-5.6952,-5.6955,-5.7017,-5.7018,-5.7019,-5.702,0,-5.648,-5.6486,-5.6532,-5.6582,-5.662,-5.6659,-5.6696,-5.6722,-5.6737,-5.6774,-5.6828,-5.686,-5.6924,-5.6975,-5.7023,-5.7043,-5.7033,-5.7035,-5.7047,-5.7044,-5.7035,-5.7037,-5.6893,-5.703,-5.7029,-5.7028,-5.7028,-5.7027,-5.6557,-5.6598,-5.6636,-5.6687,-5.6717,-5.6752,-5.6793,-5.6813,-5.6859,-5.6912,-5.6916,-5.6974,-5.701,-5.7073,-5.7097,-5.7141,-5.7126,-5.7145,-5.7149,-5.7152,-5.7155,-5.7032,-5.7151,-5.715,-5.715,-5.715,-5.715,0,-5.6665,-5.6689,-5.6737,-5.679,-5.683,-5.6822,-5.6863,-5.6896,-5.6948,-5.6983,-5.7025,-5.7086,-5.7136,-5.7162,-5.7211,-5.7241,-5.7238,-5.7253,-5.7249,-5.7254,-5.7167,-5.715,-5.7255,-5.7255,-5.7255,-5.7255,-5.7255,-5.7255,-5.6725,-5.6793,-5.6805,-5.6888,-5.6912,-5.6969,-5.6993,-5.7025,-5.7054,-5.7123,-5.7165,-5.7182,-5.7213,-5.7265,-5.7309,-5.7315,-5.7332,-5.7349,-5.7353,-5.7271,-5.726,-5.7249,-5.7233,-5.7354,-5.7354,-5.7435,-5.7435,-5.7436]},{"header":{"parameterUnit":"m.s-1","parameterCategory":1,"la1":30.2991,"la2":30.254,"lo1":-89.0895,"lo2":-89.0444,"dy":0.0017,"dx":0.0017,"nx":28,"ny":28,"refTime":"2025-04-02T09:00:00:Z","depth":0,"parameterNumber":3,"parameterNumberName":"V-component_of_WINDS"},"data":[0,0,0,0,0,0,0,0,0,0,0,0,0,0,0,0,0,0,0,0,0,0,0,0,0,0,0,0,0,0,0,0,0,0,0,0,0,0,0,0,0,0,0,0,0,0,0,0,0,0,0,0,0,0,0,0,0,0,4.7724,4.7724,0,4.7772,4.7773,4.7773,4.7759,4.7758,4.7757,4.7756,4.7803,4.7805,4.7807,0,0,0,0,0,0,0,0,0,0,0,0,0,4.7617,4.762,4.7724,4.7724,4.7725,4.7772,4.7773,4.7773,4.7759,4.7758,4.7757,4.7756,4.7802,4.7804,4.7807,0,0,0,0,0,0,0,0,0,0,0,0,0,4.7664,4.762,4.7724,4.7724,4.7724,4.7772,4.7773,4.7773,4.7759,4.7758,4.7756,4.7755,4.7801,4.7804,4.7807,4.7857,0,0,4.7817,4.7819,0,0,0,0,0,0,0,0,4.7662,4.7668,4.7723,4.7724,4.7724,4.7758,4.7752,4.7801,4.776,4.7746,4.7756,4.7754,4.7789,4.7793,4.7805,4.7859,4.7861,4.7818,4.7819,4.7821,4.7822,0,0,0,0,0,0,0,4.7659,4.7666,4.7743,4.7724,4.7725,4.7721,4.7726,4.7762,4.7775,4.7747,4.7746,4.7752,4.7789,4.7802,4.7806,4.7862,4.7817,4.782,4.7822,4.7824,4.7962,4.7963,0,0,0,0,0,0,4.7655,4.7664,4.7741,4.7744,4.7689,4.7724,4.7729,4.7749,4.7775,4.7777,4.7753,4.7751,4.7797,4.7802,4.7808,4.7869,4.7821,4.7824,4.7826,4.796,4.7962,4.7964,0,0,0,0,0,0,4.7653,4.7662,4.7739,4.7704,4.7713,4.7727,4.7749,4.775,4.7764,4.7779,4.7782,4.7765,4.7796,4.7803,4.7846,4.787,4.7825,4.7828,4.7958,4.796,4.7963,4.7992,0,0,0,0,0,0,4.765,4.7661,4.7681,4.7704,4.7715,4.7777,4.775,4.7752,4.777,4.7767,4.7791,4.7793,4.7796,4.7841,4.7849,4.7874,4.7831,4.7956,4.7959,4.7962,4.7988,4.7995,4.8,0,0,0,0,0,4.7646,4.7686,4.7682,4.7691,4.774,4.7778,4.7784,4.7788,4.7772,4.7791,4.7802,4.7792,4.7867,4.7845,4.7854,4.7881,4.7954,4.7958,4.7962,4.7986,4.7994,4.8,0,0,0,0,0,0,4.7663,4.7689,4.7685,4.7733,4.7754,4.7776,4.78,4.7795,4.782,4.7817,4.7819,4.7824,4.7868,4.7879,4.7855,4.7931,4.7908,4.7914,4.7923,4.7931,4.7936,4.7933,4.7834,0,0,0,0,0,4.7673,4.7703,4.7723,4.7764,4.7775,4.7786,4.7803,4.7804,4.7825,4.7833,4.7847,4.7867,4.7895,4.7913,4.794,4.799,4.7995,4.8013,4.8019,4.8023,4.8028,4.8057,4.8066,4.7976,4.7976,4.7976,0,0,4.7692,4.771,4.7728,4.7768,4.7784,4.7815,4.7793,4.7826,4.7849,4.7838,4.788,4.789,4.7913,4.796,4.7981,4.797,4.8054,4.8028,4.8032,4.8035,4.8062,4.8071,4.8078,4.7979,4.7979,4.7978,0,0,4.7744,4.776,4.7797,4.7814,4.784,4.7848,4.7856,4.788,4.7887,4.7929,4.7922,4.7949,4.7997,4.8014,4.8029,4.809,4.8083,4.8098,4.8129,4.8157,4.8164,4.8171,4.8193,4.8201,4.8103,4.8103,4.8103,0,4.7765,4.7812,4.7816,4.7851,4.7869,4.7862,4.7899,4.7915,4.7948,4.796,4.7947,4.8009,4.8023,4.8075,4.8091,4.8103,4.8113,4.8096,4.8163,4.8169,4.8175,4.8197,4.8206,4.8105,4.8105,4.8105,4.8105,0,4.7837,4.787,4.7896,4.793,4.7951,4.7986,4.7996,4.8017,4.8016,4.8025,4.8069,4.8087,4.8118,4.813,4.8129,4.8182,4.8175,4.8163,4.8139,4.8186,4.8206,4.8214,4.8108,4.8107,4.8107,4.8106,0,0,4.79,4.7937,4.7947,4.7963,4.7991,4.8017,4.8052,4.8084,4.8102,4.8125,4.8156,4.8197,4.8187,4.8204,4.8205,4.823,4.8279,4.8215,4.8216,4.8227,4.834,4.835,4.8359,4.8274,4.8276,4.8277,4.8338,0,4.7955,4.8019,4.8025,4.8083,4.8114,4.8108,4.814,4.8161,4.817,4.8198,4.8208,4.8238,4.8222,4.8232,4.8256,4.8268,4.8302,4.8263,4.8303,4.8304,4.8298,4.837,4.8379,4.8436,4.8346,4.8348,4.8349,0,4.8028,4.8055,4.8116,4.8143,4.8156,4.8184,4.8215,4.8241,4.8264,4.827,4.829,4.8289,4.8326,4.8301,4.8352,4.8326,4.8343,4.8351,4.8353,4.8357,4.8329,4.8376,4.8454,4.8463,4.8361,4.836,4.8359,0,4.8069,4.8121,4.8165,4.8178,4.821,4.823,4.8244,4.8266,4.8286,4.8312,4.8325,4.8355,4.8371,4.8394,4.8401,4.8382,4.8452,4.8428,4.8458,4.8458,4.8473,4.8472,4.8556,4.8483,4.8483,4.8482,4.8482,0,4.813,4.8168,4.8184,4.8211,4.8254,4.826,4.8302,4.8314,4.8335,4.8364,4.8361,4.8388,4.8395,4.8424,4.8429,4.8471,4.8478,4.8484,4.8485,4.8485,4.8484,4.8496,4.8492,4.8485,4.8484,4.8484,4.8483,0,4.8183,4.8195,4.8243,4.827,4.8277,4.8308,4.833,4.8356,4.8366,4.8404,4.8413,4.8428,4.8462,4.8471,4.851,4.8514,4.8565,4.8561,4.8557,4.8557,4.8587,4.8585,4.8682,4.8695,4.8612,4.8613,4.8614,0,4.8222,4.8252,4.8282,4.8302,4.8318,4.835,4.837,4.8378,4.8399,4.843,4.8452,4.8486,4.8514,4.8568,4.8582,4.8613,4.8611,4.8643,4.8615,4.8615,4.8613,4.8611,4.8615,4.8648,4.8649,4.865,4.865,0,4.829,4.8295,4.8325,4.8359,4.8383,4.8409,4.8434,4.845,4.8461,4.8486,4.8521,4.8543,4.8585,4.8618,4.865,4.8664,4.8659,4.8659,4.8668,4.8668,4.8665,4.8668,4.8572,4.8657,4.8656,4.8656,4.8655,4.8655,4.8338,4.8365,4.8391,4.8425,4.8445,4.8469,4.8496,4.851,4.854,4.8576,4.8578,4.8617,4.8641,4.8683,4.8699,4.8729,4.8719,4.8732,4.8735,4.8738,4.8742,4.866,4.8735,4.8734,4.8734,4.8734,4.8734,0,4.8407,4.8424,4.8456,4.8492,4.8519,4.8514,4.8541,4.8564,4.8599,4.8622,4.865,4.8691,4.8725,4.8742,4.8775,4.8796,4.8795,4.8805,4.8803,4.8807,4.8748,4.8737,4.8805,4.8805,4.8805,4.8805,4.8805,4.8805,4.8446,4.8492,4.85,4.8556,4.8572,4.8611,4.8628,4.865,4.8669,4.8716,4.8744,4.8756,4.8777,4.8812,4.8843,4.8847,4.8859,4.8871,4.8874,4.8818,4.8811,4.8804,4.8794,4.8873,4.8873,4.8931,4.8931,4.8932]}]]